Location: Argonnex
(45.9500°N, 6.1333°E)
Time: 09:40:34
(UTC+00:00)

Cosmos 2266 Rocket - Pass Details

Date: 28 September 2023
Orbit: 933 x 1008 km, 82.9° (Epoch: 10 December)

Event Time Altitude Azimuth Distance (km) Brightness Sun altitude
Exits shadow 03:12:34 43° 206° (SSW) 1,367 4.4 -24.0°
Maximum altitude 03:14:47 73° 279° (W) 1,038 3.9 -23.6°
Drops below altitude 10° 03:21:12 10° 5° (N) 2,787 6.7 -22.6°
Sets 03:23:46 0° 8° (N) 3,746 7.5 -22.2°
